034  
ASUS41 KLWX 100811  
RWRLWX  
 
REGIONAL WEATHER ROUNDUP  
NATIONAL WEATHER SERVICE BALTIMORE MD/WASHINGTON DC  
300 AM EST MON DEC 10 2018  
 
NOTE: "FAIR" INDICATES FEW OR NO CLOUDS BELOW 12,000 FEET  
WITH NO SIGNIFICANT WEATHER AND/OR S TO VISIBILITY
.  
TC=TEMPERATURE CELSIUS  
 
* =NON NWS SITE. STATION DOES NOT REPORT PRECIPITATION (E.G. RAIN,  
SNOW, ETC.), THUNDER, OR FOG.
 
 
DCZ001-MDZ009-015-VAZ040>042-051-053>054-100900-  
WASHINGTON METRO  
 
CITY SKY/WX TMP DP RH WIND PRES REMARKS
 
WASHINGTON NAT MOCLDY 32 17 54 N9 30.11S WCI 24  
DULLES MOCLDY 28 18 66 N10 30.11R WCI 19  
ANDREWS AFB MOCLDY 29 17 61 N6 30.08R WCI 23  
FT BELVOIR CLOUDY 31 16 55 N3 30.11R  
QUANTICO FAIR 29 20 69 N3 30.12S  
COLLEGE PARK* FAIR 29 17 59 N5 30.10S WCI 24  
LEESBURG* FAIR 28 23 80 N6 30.13R WCI 22  
MANASSAS* FAIR 28 20 71 N9 30.11S WCI 19  
GAITHERSBURG* FAIR 24 17 74 CALM 30.10R  
 

 
 
MDZ006>007-011-014-100900-  
BALTIMORE METRO  
 
CITY SKY/WX TMP DP RH WIND PRES REMARKS
 
BWI AIRPORT MOCLDY 30 17 58 N6 30.10S WCI 24  
MD SCIENCE CTR N/A 31 16 54 MISG 30.10S  
MARTIN STATE FAIR 30 21 69 NW5 30.12S WCI 25  
ANNAPOLIS FAIR 35 20 54 N8 30.09S WCI 29  
FORT MEADE* FAIR 30 19 64 N3 30.12S  
 

 
 
MDZ012-015-019>023-100900-  
MARYLAND EASTERN SHORE  
 
CITY SKY/WX TMP DP RH WIND PRES REMARKS
 
OCEAN CITY MOCLDY 38 31 76 N12G23 30.03S WCI 30  
SALISBURY FAIR 34 32 92 N12 30.04S WCI 25  
BAY BRIDGE AP* FAIR 32 23 69 N7 30.10R WCI 26  
CAMBRIDGE* CLEAR 30 23 74 N9 30.07S WCI 22  
EASTON* FAIR 31 19 61 N6 30.12R WCI 25  
 

 
 
MDZ017>025-100900-  
SOUTHERN MARYLAND  
 
CITY SKY/WX TMP DP RH WIND PRES REMARKS
 
PATUXENT RIVER FAIR 37 29 72 N14 30.07R WCI 28  
ST INIGOES FAIR 35 29 78 N3 30.06R  
LEONARDTOWN* FAIR 32 28 86 CALM 30.09R  
 

 
 
MDZ003>005-100900-  
NORTH CENTRAL MARYLAND  
 
CITY SKY/WX TMP DP RH WIND PRES REMARKS
 
FREDERICK* FAIR 21 19 93 CALM 30.15S  
HAGERSTOWN APT FAIR 23 15 71 CALM 30.11S  
WESTMINSTER* NOT AVBL  
 

 
 
MDZ501>502-100900-  
WESTERN MARYLAND  
 
CITY SKY/WX TMP DP RH WIND PRES REMARKS
 
OAKLAND* FAIR 23 1 39 N6 30.02R WCI 16  
CUMBERLAND* FAIR 18 15 90 N5 30.19R WCI 11  
 

 
 
VAZ025>031-100900-  
SHENANDOAH VALLEY  
 
CITY SKY/WX TMP DP RH WIND PRES REMARKS
 
WINCHESTER* FAIR 18 14 86 CALM 30.13S  
FRONT ROYAL* FAIR 21 21 100 MISG 30.11S  
LURAY* FAIR 23 23 100 CALM 30.11S FOG  
NEW MARKET* FAIR 19 18 96 CALM 30.10S  
STAUNTON* FOG 21 20 97 N3 30.11S VSB 1  
WAYNESBORO* FAIR 23 22 96 CALM 30.07S  
 

 
 
WVZ021-048>050-054>055-100900-  
EASTERN WEST VIRGINIA PANHANDLE  
 
CITY SKY/WX TMP DP RH WIND PRES REMARKS
 
MARTINSBURG FAIR 18 15 88 CALM 30.12R FOG  
PETERSBURG* FAIR 21 19 93 CALM 30.14R FOG  
 

 
 
VAZ036>039-050-100900-  
CENTRAL FOOTHILLS  
 
CITY SKY/WX TMP DP RH WIND PRES REMARKS
 
CHARLOTTESVILL FAIR 28 23 81 N3 30.06F  
CULPEPER* FAIR 26 20 76 N3 30.11S  
ORANGE* FAIR 28 21 74 E3 30.09R  
GORDONSVILLE* FAIR 28 22 78 CALM 30.08R  
WARRENTON* FAIR 27 19 72 CALM 30.10R  
 

 
 
VAZ055>057-100900-  
NORTH AND CENTRAL PIEDMONT  
 
CITY SKY/WX TMP DP RH WIND PRES REMARKS
 
FREDERICKSBRG* FAIR 29 24 79 N6 30.09F WCI 23  
STAFFORD* FAIR 28 22 76 N5 30.14R WCI 23  
 

 
 
NCZ024-NYZ072-PAZ021-071-VAZ022-071-100900-  
OTHER REGIONAL OBSERVATIONS  
 
CITY SKY/WX TMP DP RH WIND PRES REMARKS
 
NEW YORK CITY FAIR 31 16 54 MISG 30.12F  
PHILADELPHIA FAIR 27 16 63 N10 30.12R WCI 17  
PITTSBURGH FAIR 18 14 84 N3 30.15R  
ROANOKE CLOUDY 30 26 85 N12 30.07S WCI 20  
RICHMOND CLOUDY 31 25 78 N15 30.05S WCI 20  
RALEIGH LGT RAIN 33 32 96 NE12 29.96S FOG WCI 24  
 

 
 
ANZ530>537-100900-  
MARINE OBSERVATIONS  
 
STATION/POSITION TIME TEMP WIND PRES
 
AIR SEA DIR/SP/G  
(UTC) (F) (DEG/KT/KT) (MB)  
THOMAS PT LIGHT 0800 32 40 350/ 14/ 15 1019.7R  
BALT KEY BRIDGE 0736 31 360/ 9/ 10 1019.3F  
COVE POINT 0736 35 10/ 11/ 16 1018.9R  
LEWISETTA 0742 36 39 30/ 8/ 13 1018.0R  
SOLOMONS ISLAND 0736 34 43 350/ 9/ 12 1018.1R  
PINEY POINT 0742 360/ 7/ 9 N/A  
 

 
 
 
 
CLICK HERE TO GO TO PREVIOUS BULLETINS.

The Nexlab VA Page
The Nexlab MD Page
The Nexlab WV Page Main Text Page